Погода в Эль-Бурайми

Оман     24°15′32″N   55°47′01″E
темп.,
°C
ветер,
м/с
пор.,
м/с
влажн.,
%
обл.,
%
осадки,
мм/ч
давл.,
гПа
погр.,
м
6 мая, чт
чт601:00+26с3467100 0.0 1008280
04:00+24с3476100 0.0 1008125
07:00+26в125847 0.0 1009151
10:00+31с122265 0.0 10091275
13:00+35зюз2211100 0.0 10082042
16:00+36з3314100 0.0 10062601
19:00+32сз8835100 0.0 1007568
22:00+29ссз565160 0.0 1009441
7 мая, пт
пт701:00+28с3453100 0.0 1008143
04:00+27с3355100 0.0 100737
07:00+28вюв1151100 0.0 100994
10:00+33ю6627100 0.0 10101372
13:00+37ююз5615100 0.0 10083141
16:00+37юз6614100 0.0 10073364
19:00+33зсз5820100 0.0 1007184
22:00+30с5839100 0.0 1009263
8 мая, сб
сб801:00+29ссв23392 0.0 100829
04:00+28вюв334450 0.0 100721
07:00+30юв36410 0.0 1008231
10:00+35ю55320 0.0 10091607
13:00+39юз532031 0.0 10064204
16:00+39зсз431852 0.0 10043328
19:00+32в56367 0.1 1007460
22:00+31в123826 0.1 100875
9 мая, вс
вс901:00+30в11410 0.0 100712
04:00+29юв12420 0.0 100725
07:00+29ююв69410 0.0 1009353
10:00+34юз33330 0.0 10091410
13:00+38зсз34170 0.0 10072351
16:00+39ссз67120 0.0 10053775
19:00+34ссз810170 0.0 1006567
22:00+30с35240 0.0 1008115
10 мая, пн
пн1001:00+29с33270 0.0 100734
04:00+27св22300 0.0 100711
07:00+29ююв33220 0.0 1008105
10:00+35з58110 0.0 10081463
13:00+38зсз81390 0.0 10062883
16:00+37сз8990 0.0 10052240
19:00+33зсз69180 0.0 1006307
22:00+29зсз22280 0.0 100826